Tracking 19574 objects as of 16-Feb-2019
HD Live streaming from Space Station
objects crossing your sky now

SL-16 DEB

Track SL-16 DEB now!
10-day predictions


NORAD ID: 22605
Int'l Code: 1993-016P
Perigee: 839.8 km
Apogee: 1,032.6 km
Inclination: 71.0 °
Period: 103.6 minutes
Semi major axis: 7307 km
RCS: 0.063 m2 (small)
Launch date: March 26, 1993
Source: Commonwealth of Independent States (former USSR) (CIS)
Launch site: TYURATAM MISSILE AND SPACE COMPLEX (TTMTR)

Note: This is SATELLITE DEBRIS
aabbcc
Your satellite tracking list
Your tracking list is empty




NASA's NSSDC Master Catalog

Two Line Element Set (TLE):
1 22605U 93016P   19047.19156958 -.00000043  00000-0  17867-5 0  9991
2 22605  70.9992 339.0233 0131929 343.8173 135.9806 13.89881275312325
Source of the keplerian elements: AFSPC